{"data":{"norad_id":57896,"intl_designator":"2023-146F","name":"STARLINK-30469","alt_names":[],"object_type":"PAYLOAD","status":"ACTIVE","operator":null,"country":"US","launch_date":"2023-09-20","launch_site_code":"AFETR","launch_vehicle":null,"mission":null,"orbit_class":"UNKNOWN","rcs_meters":null,"size_class":null,"mass_kg":null,"dimensions":null,"purposes":["comms"],"wikipedia_slug":null,"has_3d_model":false,"image_url":null,"decayed_at":null,"tle_current":{"epoch":"2026-09-20T09:23:20.011776Z","epoch_age_seconds":143793,"freshness":"FRESH","line1":"1 57896U 23146F   26263.39120384  .00001061  00000+0  48085-4 0  9996","line2":"2 57896  43.0029 294.6035 0001219 283.1507  76.9209 15.27570998166833","mean_motion":15.27570998,"eccentricity":0.0001219,"inclination_deg":43.0029,"raan_deg":294.6035,"arg_perigee_deg":283.1507,"mean_anomaly_deg":76.9209,"bstar":4.8085e-5,"rev_number":16683,"period_min":94.26730422909,"perigee_km":482.23966952751,"apogee_km":483.91243326944,"semimajor_km":6861.2130513985,"source":"CELESTRAK","updated_at":"2026-09-21T09:00:33.721448Z"}}}